Regional Weather Roundup
Issued by NWS

Home | Current Version | Previous Version | Text Only | Print | Product List | Glossary On
Versions: 1 2 3 4 5 6 7 8 9 10 11 12 13 14 15 16 17 18 19 20 21 22 23 24 25 26 27
000
ASUS45 KPSR 261310
RWRAZ

ARIZONA HOURLY REGIONAL WEATHER ROUNDUP
NATIONAL WEATHER SERVICE PHOENIX AZ
600 AM MST TUE SEP 26 2017

NOTE: FAIR INDICATES FEW OR NO CLOUDS BELOW 12,000 FEET WITH NO
SIGNIFICANT WEATHER AND/OR OBSTRUCTIONS TO VISIBILITY.

AZZ001>003-036-261400-
NORTHWEST ARIZONA

CITY           SKY/WX    TMP DP  RH WIND       PRES   REMARKS
BULLHEAD CITY  PTCLDY    72  32  23 N23G29    29.78R
KINGMAN        MOCLDY    52  28  39 E8        29.91S
$$

AZZ004>008-015-016-018-261400-
NORTH CENTRAL ARIZONA

CITY           SKY/WX    TMP DP  RH WIND       PRES   REMARKS
GRAND CANYON   PTCLDY    47  21  35 E12       30.07R
WILLIAMS       CLEAR     43  12  28 S13       30.04R
PRESCOTT       PTCLDY    40  22  48 CALM      29.97R
FLAGSTAFF      PTCLDY    28  14  55 CALM      30.07R
PAYSON           N/A     54  10  17 CALM      29.98R
PAGE           CLEAR     51  26  37 SW6       30.02R
$$

AZZ009>014-017-261400-
NORTHEAST ARIZONA

CITY           SKY/WX    TMP DP  RH WIND       PRES   REMARKS
WINSLOW        PTCLDY    36  13  38 CALM      30.04R
SAINT JOHNS    CLEAR     32  15  49 W5        30.03R WCI  27
WINDOW ROCK    CLEAR     30  18  60 CALM      30.11R
SHOW LOW       CLEAR     36  21  55 S3        30.06R
$$

AZZ540-542>544-546-548-261400-
GREATER PHOENIX AREA

CITY           SKY/WX    TMP DP  RH WIND       PRES   REMARKS
PHOENIX        PTCLDY    64  29  26 E7        29.78R
BUCKEYE        CLOUDY    57  21  24 CALM      29.79R
GLENDALE       PTCLDY    57  30  35 CALM      29.80
LUKE AFB       PTCLDY    59  31  35 CALM      29.78R
DEER VALLEY    PTCLDY    59  20  22 E7        29.79R
SCOTTSDALE     PTCLDY    59  30  33 CALM      29.81R
MESA-FALCON    PTCLDY    63  25  23 NE8       29.80
MESA-GATEWAY   PTCLDY    55  19  24 E6        29.80R
CHANDLER       CLEAR     57  30  35 NE6       29.79
$$

AZZ539-553-261400-
SOUTHWEST MARICOPA COUNTY AND PINAL COUNTY

CITY           SKY/WX    TMP DP  RH WIND       PRES   REMARKS
CASA GRANDE    NOT AVBL
GILA BEND      FAIR      59  14  17 SE3       29.77R
$$

AZZ503-504-507>509-261400-
SOUTHEAST ARIZONA

CITY           SKY/WX    TMP DP  RH WIND       PRES   REMARKS
TUCSON         CLEAR     57  23  26 SE9       29.88R
DAVIS-MONTHAN  PTCLDY    55  20  25 SE8       29.86R
RYAN FIELD     CLEAR     46  19  34 SW3       29.88
NOGALES        CLEAR     46  26  45 CALM      29.93R
SIERRA VISTA   CLEAR     54  24  31 CALM      29.97R
DOUGLAS        CLEAR     46  23  40 NW3       29.96R
SAFFORD        CLEAR     52  15  23 CALM      29.88R
$$

AZZ532-261400-
SOUTHWEST ARIZONA

CITY           SKY/WX    TMP DP  RH WIND       PRES   REMARKS
YUMA           PTCLDY    63  31  30 CALM      29.75R
$$

CAZ041-043-047-048-061-525>527-560>570-261400-
SOUTHERN CALIFORNIA

CITY           SKY/WX    TMP DP  RH WIND       PRES   REMARKS
DOWNTOWN L.A.  CLEAR     63  41  44 CALM      29.78R
L.A. AIRPORT   PTCLDY    62  39  42 E5        29.78S
SAN DIEGO      PTCLDY    63  41  44 CALM      29.81R
BURBANK        CLEAR     61  32  33 W3        29.79S
ONTARIO        MOCLDY    62  33  33 CALM      29.81R
RIVERSIDE      PTCLDY    57  36  45 NE3       29.81R
PALM SPRINGS   CLEAR     66  29  24 N6        29.80R
EL CENTRO NAS  PTCLDY    61  21  21 W9        29.76R
IMPERIAL       CLEAR     62  30  29 W8        29.74R
BLYTHE         PTCLDY    63  26  24 SW6       29.76R
NEEDLES        CLEAR     72  32  23 N16       29.80R
$$

NVZ020-UTZ003-261400-
SOUTHERN NEVADA-UTAH

CITY           SKY/WX    TMP DP  RH WIND       PRES   REMARKS
LAS VEGAS      PTCLDY    64  30  27 N9        29.91R
SALT LAKE CITY PTCLDY    43  38  82 CALM      30.13S
$$

NMZ009-TXZ055-261400-
NEW MEXICO-WEST TEXAS

CITY           SKY/WX    TMP DP  RH WIND       PRES   REMARKS
ALBUQUERQUE    PTCLDY    57  49  74 E21G28    30.06R
EL PASO        PTCLDY    60  36  40 N10       29.94R
$$


........................KEY........................
SKY/WX - SKY CONDITION/WEATHER
TMP    - TEMPERATURE IN FAHRENHEIT
DP     - DEW POINT IN FAHRENHEIT
RH     - RELATIVE HUMIDITY IN PERCENT
WIND   - DIRECTION AND SPEED IN MILES PER HOUR (MPH)
VRB    - VARIABLE WIND DIRECTION
PRES   - MEAN SEA LEVEL PRESSURE IN INCHES OF MERCURY
         F - FALLING PRESSURE   R - RISING PRESSURE
         S - STEADY PRESSURE
VSB    - VISIBILITY IN MILES
HX     - HEAT INDEX IN FAHRENHEIT
WCI    - WIND CHILL INDEX IN FAHRENHEIT
TC     - TEMPERATURE IN CELSIUS WHICH IS ALSO KNOWN AS
         TEMPERATURE IN CENTIGRADE
AFB    - AIR FORCE BASE
         LUKE AFB IS LUKE AIR FORCE BASE
         DAVIS-MONTHAN IS DAVIS-MONTHAN AIR FORCE BASE
NAS    - NAVAL AIR STATION
         EL CENTRO NAS IS EL CENTRO NAVAL AIR STATION
N/A    - NOT AVAILABLE





USA.gov is the U.S. government's official web portal to all federal, state and local government web resources and services.